Location: Banff
(51.1667°N, 115.5667°W)
Time: 20:54:15
(UTC+00:00)

Vanguard 1 Rocket - Pass Details

Date: 01 December 2020
Orbit: 655 x 4221 km, 34.3° (Epoch: 17 January)

Event Time Altitude Azimuth Distance (km) Brightness Sun altitude
Exits shadow 12:26:16 28° 244° (WSW) 5,351 10.8 -27.0°
Maximum altitude 12:36:13 41° 201° (SSW) 3,935 10.4 -25.5°
Drops below altitude 10° 12:48:35 10° 138° (SE) 4,524 11.6 -23.5°
Sets 12:51:38 0° 130° (SE) 5,130 12.1 -23.0°
